Temp
-1 -1 -2 -2 -2 -3 -3 -3 -3 -3 -4 -4 -4 -5 -5 -5 -6 -6 -6 -6 -7 -7 -7 -7 -7 -7 -7 -7 -7 -8 -8 -8 -8 -9 -9 -9 -10 -10 -10 -11 -11 -12 -11 -11 -11 -11 -11 -12 -12 -12 -12 -12 -13 -13 -14 -14 -14 -15 -15 -14 -14 -14 -14
-1 -1 -2 -2 -2 -3 -3 -3 -3 -4 -4 -4 -4 -5 -5 -5 -6 -6 -6 -7 -7 -7 -7 -7 -7 -7 -8 -8 -8 -8 -9 -9 -9 -9 -10 -10 -10 -10 -10 -11 -11 -12 -12 -11 -12 -12 -12 -13 -13 -13 -13 -13 -13 -14 -14 -14 -15 -15 -15 -15 -15 -15 -15
-1 -1 -2 -2 -2 -3 -3 -3 -4 -4 -4 -4 -5 -5 -5 -5 -6 -6 -6 -7 -7 -7 -7 -8 -8 -8 -8 -9 -9 -9 -9 -10 -10 -10 -10 -10 -10 -11 -11 -11 -11 -12 -12 -12 -12 -12 -13 -13 -13 -13 -14 -14 -14 -14 -15 -15 -14 -14 -15 -15 -15 -15 -15
-1 -2 -2 -2 -3 -3 -3 -3 -4 -4 -4 -5 -5 -5 -5 -5 -6 -6 -6 -6 -7 -7 -8 -8 -8 -8 -9 -9 -10 -10 -10 -11 -11 -11 -11 -11 -11 -11 -11 -11 -12 -12 -12 -12 -13 -13 -13 -13 -14 -14 -14 -15 -15 -15 -15 -15 -15 -15 -15 -15 -15 -15 -15
-2 -2 -2 -2 -2 -3 -3 -3 -4 -4 -4 -5 -5 -5 -5 -6 -6 -6 -6 -6 -7 -7 -8 -8 -8 -8 -9 -10 -10 -10 -11 -11 -11 -11 -11 -11 -11 -11 -11 -12 -12 -12 -13 -13 -13 -13 -14 -14 -14 -15 -15 -15 -15 -15 -15 -15 -15 -15 -15 -15 -15 -15 -15
-2 -2 -3 -3 -3 -3 -3 -3 -4 -4 -4 -5 -5 -5 -6 -6 -6 -6 -6 -7 -7 -7 -8 -8 -8 -9 -10 -10 -10 -10 -11 -11 -11 -11 -11 -11 -11 -12 -12 -12 -12 -13 -13 -14 -14 -14 -15 -15 -15 -15 -15 -16 -16 -16 -16 -16 -16 -16 -16 -16 -16 -15 -16
-3 -3 -3 -3 -3 -3 -4 -4 -4 -4 -5 -5 -5 -6 -6 -6 -6 -7 -7 -7 -8 -8 -8 -9 -9 -9 -10 -10 -10 -10 -11 -11 -11 -11 -11 -11 -12 -12 -12 -12 -13 -13 -14 -14 -14 -15 -15 -15 -15 -16 -16 -16 -16 -16 -17 -17 -17 -16 -16 -16 -16 -16 -17
-4 -4 -4 -4 -4 -4 -4 -4 -5 -5 -5 -6 -6 -6 -6 -7 -7 -7 -8 -8 -8 -9 -9 -9 -10 -10 -10 -10 -10 -11 -11 -11 -11 -11 -12 -12 -12 -13 -13 -13 -13 -14 -14 -14 -15 -15 -15 -16 -16 -16 -16 -17 -17 -17 -17 -17 -17 -17 -16 -17 -17 -17 -18
-4 -4 -4 -5 -5 -5 -5 -5 -5 -6 -6 -6 -6 -6 -7 -7 -7 -8 -8 -8 -9 -9 -9 -10 -10 -10 -10 -11 -11 -11 -11 -12 -12 -12 -12 -12 -13 -13 -13 -13 -14 -14 -14 -15 -15 -15 -16 -16 -16 -17 -17 -17 -17 -17 -16 -17 -17 -17 -17 -18 -18 -18 -18
-5 -5 -5 -6 -6 -6 -6 -6 -6 -6 -6 -7 -7 -7 -7 -8 -8 -8 -8 -9 -9 -10 -10 -10 -10 -11 -11 -11 -12 -12 -12 -12 -12 -13 -13 -13 -13 -13 -13 -14 -14 -14 -15 -15 -16 -16 -16 -16 -17 -17 -17 -17 -17 -17 -17 -17 -18 -18 -18 -19 -19 -19 -19
-6 -7 -7 -7 -7 -7 -7 -7 -7 -7 -8 -8 -8 -8 -8 -8 -8 -9 -9 -9 -10 -10 -10 -10 -11 -11 -12 -12 -12 -12 -13 -13 -13 -13 -13 -13 -14 -14 -14 -14 -14 -15 -15 -16 -16 -16 -16 -17 -17 -17 -17 -17 -17 -17 -18 -18 -18 -19 -19 -19 -20 -19 -19
-7 -8 -8 -8 -8 -8 -8 -8 -8 -9 -9 -9 -9 -9 -9 -9 -9 -10 -10 -10 -10 -10 -11 -11 -11 -12 -12 -12 -13 -13 -13 -13 -14 -14 -14 -14 -14 -14 -14 -15 -15 -15 -16 -16 -16 -16 -17 -17 -17 -17 -17 -18 -18 -18 -18 -18 -19 -19 -19 -20 -20 -20 -20
-8 -8 -8 -8 -9 -9 -9 -9 -9 -10 -10 -10 -10 -10 -10 -10 -10 -10 -11 -11 -11 -11 -11 -12 -12 -12 -12 -13 -13 -13 -14 -14 -14 -14 -14 -14 -15 -15 -15 -15 -15 -16 -16 -17 -17 -17 -17 -17 -17 -17 -17 -18 -18 -18 -19 -19 -19 -19 -19 -20 -20 -20 -20
-9 -9 -9 -9 -9 -9 -9 -10 -10 -10 -11 -11 -11 -11 -11 -11 -11 -11 -11 -11 -12 -12 -12 -12 -12 -13 -13 -13 -13 -14 -14 -14 -14 -14 -15 -15 -15 -15 -15 -15 -16 -17 -17 -17 -17 -18 -17 -17 -17 -17 -17 -18 -18 -19 -19 -19 -19 -19 -20 -20 -20 -20 -20
-10 -10 -10 -10 -10 -10 -10 -10 -11 -11 -11 -11 -12 -12 -12 -12 -12 -12 -12 -12 -12 -12 -13 -13 -13 -13 -13 -13 -14 -14 -14 -14 -14 -15 -15 -15 -15 -15 -15 -16 -16 -17 -17 -17 -18 -18 -17 -17 -17 -17 -18 -18 -19 -19 -19 -19 -19 -20 -20 -20 -21 -21 -21
-11 -11 -11 -11 -11 -11 -11 -11 -11 -12 -12 -12 -12 -13 -13 -13 -12 -12 -12 -12 -13 -13 -13 -13 -13 -14 -14 -14 -14 -14 -14 -14 -15 -15 -15 -15 -15 -15 -16 -16 -16 -17 -17 -17 -18 -18 -18 -18 -18 -18 -18 -18 -19 -19 -19 -19 -20 -20 -20 -21 -21 -20 -20
-12 -12 -12 -12 -12 -12 -12 -12 -12 -12 -13 -13 -13 -14 -13 -13 -13 -13 -13 -13 -13 -13 -13 -13 -13 -14 -14 -14 -15 -15 -15 -15 -15 -15 -15 -16 -16 -16 -16 -17 -17 -17 -18 -18 -18 -18 -18 -18 -18 -18 -18 -18 -19 -19 -19 -19 -20 -20 -20 -20 -20 -20 -20
-13 -12 -12 -13 -13 -13 -13 -13 -13 -13 -13 -14 -14 -14 -14 -14 -14 -13 -13 -13 -13 -13 -13 -13 -14 -14 -14 -15 -15 -15 -15 -15 -16 -16 -16 -16 -17 -17 -17 -17 -18 -18 -18 -18 -18 -18 -18 -18 -18 -18 -18 -18 -19 -18 -19 -19 -19 -19 -19 -20 -20 -20 -20
-13 -13 -13 -13 -14 -14 -14 -14 -14 -14 -14 -15 -15 -15 -15 -14 -14 -14 -14 -14 -14 -14 -14 -14 -14 -15 -15 -15 -15 -15 -15 -16 -16 -16 -16 -17 -17 -17 -18 -18 -18 -18 -18 -18 -18 -18 -18 -18 -18 -18 -19 -19 -19 -19 -19 -19 -19 -19 -19 -20 -20 -20 -21
-14 -14 -14 -14 -14 -15 -15 -15 -15 -15 -15 -15 -15 -15 -15 -15 -15 -15 -15 -15 -15 -15 -15 -15 -15 -15 -15 -15 -16 -16 -16 -16 -16 -16 -17 -17 -18 -18 -18 -18 -18 -18 -18 -18 -18 -18 -18 -18 -18 -18 -19 -19 -19 -19 -19 -19 -20 -20 -20 -20 -20 -20 -21
-15 -15 -15 -15 -16 -16 -16 -16 -16 -16 -16 -16 -16 -16 -16 -16 -16 -16 -16 -16 -16 -16 -17 -16 -16 -16 -16 -16 -16 -16 -16 -16 -16 -16 -17 -17 -18 -18 -18 -18 -18 -18 -18 -18 -18 -18 -18 -19 -19 -19 -19 -19 -19 -19 -19 -19 -20 -20 -20 -20 -21 -21 -21
-16 -16 -16 -16 -16 -16 -16 -17 -17 -16 -16 -16 -16 -16 -16 -16 -16 -16 -17 -17 -17 -17 -17 -17 -17 -17 -17 -17 -17 -17 -17 -16 -16 -16 -17 -17 -17 -17 -17 -18 -18 -18 -18 -19 -19 -19 -19 -19 -19 -19 -19 -19 -19 -19 -19 -19 -19 -20 -20 -20 -20 -21 -21
-17 -17 -17 -17 -17 -17 -17 -17 -17 -17 -17 -17 -17 -17 -17 -17 -17 -17 -18 -18 -18 -18 -18 -18 -18 -18 -18 -18 -18 -18 -17 -17 -17 -17 -17 -17 -17 -17 -17 -18 -18 -18 -19 -19 -19 -19 -19 -19 -19 -19 -19 -19 -19 -19 -19 -19 -19 -20 -20 -20 -20 -20 -21
-18 -18 -18 -17 -17 -17 -17 -17 -17 -17 -17 -17 -17 -17 -18 -18 -18 -18 -18 -19 -19 -19 -19 -19 -19 -19 -19 -19 -19 -18 -17 -17 -17 -17 -17 -17 -17 -17 -18 -18 -18 -18 -19 -19 -19 -19 -19 -19 -19 -19 -19 -19 -19 -19 -19 -19 -19 -20 -20 -20 -20 -21 -21
-18 -18 -18 -18 -18 -18 -17 -18 -18 -18 -18 -18 -18 -18 -18 -18 -18 -18 -18 -19 -19 -19 -19 -19 -19 -19 -19 -19 -19 -18 -18 -18 -18 -18 -18 -18 -18 -18 -18 -19 -19 -19 -19 -19 -19 -19 -19 -19 -19 -19 -19 -19 -19 -19 -19 -20 -20 -20 -20 -20 -21 -21 -21
-18 -18 -19 -19 -19 -19 -19 -19 -19 -19 -19 -19 -19 -19 -18 -18 -19 -19 -19 -19 -19 -19 -19 -19 -19 -19 -19 -19 -19 -19 -19 -19 -19 -19 -19 -19 -19 -19 -19 -19 -19 -19 -19 -19 -19 -19 -20 -20 -20 -20 -20 -20 -20 -20 -20 -20 -20 -20 -21 -21 -21 -21 -21
-19 -19 -20 -20 -20 -20 -20 -20 -20 -20 -20 -20 -20 -20 -19 -19 -19 -19 -19 -19 -19 -19 -19 -19 -20 -20 -20 -20 -20 -20 -20 -20 -20 -20 -20 -20 -20 -20 -20 -20 -20 -20 -20 -20 -20 -20 -20 -20 -20 -21 -21 -21 -21 -21 -21 -21 -21 -21 -21 -21 -21 -21 -21
-20 -20 -21 -21 -21 -21 -22 -22 -21 -21 -21 -21 -20 -20 -20 -20 -20 -20 -20 -20 -20 -20 -20 -20 -20 -20 -21 -20 -20 -20 -20 -20 -20 -20 -20 -20 -20 -20 -20 -20 -20 -21 -21 -21 -21 -21 -21 -21 -21 -21 -21 -21 -21 -21 -21 -21 -21 -21 -21 -22 -22 -22 -22
-21 -22 -22 -22 -22 -22 -22 -22 -22 -22 -22 -22 -21 -21 -21 -21 -20 -21 -21 -21 -21 -21 -21 -21 -21 -21 -21 -21 -21 -21 -21 -21 -21 -21 -21 -21 -21 -21 -21 -21 -21 -21 -21 -21 -21 -21 -21 -21 -21 -22 -22 -22 -22 -22 -22 -22 -22 -22 -22 -22 -22 -22 -22
-22 -22 -22 -22 -23 -23 -23 -23 -23 -23 -22 -22 -22 -22 -21 -21 -21 -21 -21 -21 -21 -22 -22 -22 -22 -22 -21 -21 -21 -21 -21 -21 -21 -21 -21 -21 -21 -21 -22 -22 -21 -22 -22 -21 -21 -21 -21 -21 -22 -22 -22 -22 -22 -23 -22 -22 -22 -22 -23 -23 -23 -23 -23
-22 -23 -23 -23 -23 -23 -23 -23 -23 -23 -23 -23 -23 -23 -22 -22 -22 -22 -22 -22 -22 -22 -22 -22 -23 -22 -22 -22 -22 -22 -22 -22 -22 -22 -22 -22 -22 -22 -22 -22 -22 -22 -22 -22 -22 -22 -22 -22 -22 -22 -22 -22 -23 -23 -23 -23 -23 -23 -23 -24 -24 -24 -24
-22 -22 -22 -23 -23 -23 -24 -24 -24 -23 -23 -23 -23 -23 -23 -23 -23 -23 -22 -22 -22 -23 -23 -23 -23 -23 -24 -24 -24 -23 -23 -23 -23 -23 -22 -22 -22 -22 -22 -22 -22 -22 -22 -22 -22 -22 -22 -22 -22 -22 -22 -22 -23 -23 -23 -23 -23 -23 -23 -24 -24 -24 -24
-22 -22 -22 -22 -22 -23 -24 -24 -24 -24 -23 -23 -23 -23 -24 -24 -24 -24 -23 -23 -23 -24 -24 -24 -24 -24 -25 -25 -25 -25 -25 -25 -24 -24 -24 -23 -23 -23 -23 -23 -22 -22 -22 -22 -22 -22 -22 -22 -22 -22 -23 -23 -23 -23 -23 -23 -23 -23 -23 -24 -24 -24 -25
-22 -22 -23 -23 -23 -23 -24 -24 -24 -24 -24 -24 -25 -25 -26 -26 -25 -25 -25 -25 -25 -25 -25 -25 -25 -26 -26 -26 -26 -26 -26 -26 -26 -25 -25 -25 -25 -24 -24 -24 -23 -23 -23 -23 -23 -23 -23 -23 -23 -23 -23 -23 -23 -23 -23 -23 -23 -23 -24 -24 -24 -25 -25
-22 -22 -23 -24 -24 -24 -25 -25 -25 -25 -26 -27 -27 -27 -27 -26 -26 -26 -26 -26 -26 -26 -26 -27 -27 -27 -27 -28 -28 -28 -27 -27 -27 -27 -26 -26 -26 -26 -25 -25 -25 -24 -24 -24 -24 -24 -24 -24 -24 -23 -23 -23 -23 -23 -23 -24 -24 -24 -24 -24 -25 -25 -25
-24 -24 -24 -24 -25 -25 -26 -26 -26 -27 -28 -28 -29 -28 -28 -27 -28 -28 -28 -28 -27 -27 -28 -28 -28 -29 -29 -29 -29 -29 -29 -29 -28 -28 -27 -27 -27 -27 -26 -26 -26 -25 -25 -25 -25 -24 -24 -24 -24 -24 -24 -24 -24 -24 -24 -24 -24 -24 -24 -25 -25 -25 -25
Height
1422 1421 1420 1419 1419 1419 1420 1420 1421 1422 1423 1423 1423 1423 1424 1425 1427 1427 1427 1429 1430 1431 1432 1433 1434 1435 1437 1439 1440 1441 1442 1443 1445 1446 1448 1449 1450 1451 1453 1454 1455 1453 1453 1454 1455 1456 1458 1459 1460 1460 1461 1462 1463 1463 1464 1464 1464 1464 1464 1464 1464 1465 1464
1417 1416 1415 1414 1413 1413 1414 1414 1415 1416 1417 1417 1417 1418 1418 1419 1420 1421 1421 1423 1423 1424 1426 1427 1428 1429 1431 1433 1434 1435 1436 1438 1439 1440 1442 1443 1444 1445 1447 1449 1450 1450 1449 1450 1451 1452 1453 1454 1455 1455 1457 1458 1459 1460 1460 1460 1460 1460 1460 1460 1460 1460 1460
1412 1411 1410 1409 1408 1408 1408 1408 1409 1410 1410 1410 1411 1412 1412 1413 1414 1415 1415 1416 1416 1418 1420 1421 1421 1422 1425 1427 1428 1429 1430 1432 1433 1435 1436 1438 1439 1441 1442 1444 1445 1446 1445 1445 1446 1447 1448 1450 1450 1451 1452 1454 1455 1455 1456 1455 1456 1456 1456 1456 1456 1456 1455
1407 1406 1405 1404 1403 1402 1402 1402 1403 1404 1404 1404 1405 1406 1407 1408 1408 1409 1409 1410 1411 1413 1414 1415 1415 1416 1418 1421 1422 1423 1424 1426 1427 1429 1431 1433 1434 1436 1437 1439 1440 1441 1441 1441 1441 1442 1443 1445 1446 1446 1448 1450 1450 1450 1451 1451 1451 1451 1452 1452 1451 1451 1450
1401 1400 1399 1398 1398 1397 1397 1397 1398 1398 1398 1398 1399 1400 1401 1402 1403 1403 1404 1405 1406 1407 1408 1409 1409 1411 1413 1415 1415 1417 1418 1420 1422 1424 1426 1428 1429 1431 1433 1434 1435 1436 1437 1437 1436 1437 1439 1440 1441 1442 1443 1444 1445 1445 1445 1446 1446 1446 1447 1447 1446 1446 1446
1396 1395 1394 1393 1393 1393 1392 1392 1393 1392 1392 1393 1394 1395 1395 1396 1397 1398 1399 1400 1400 1402 1403 1403 1404 1406 1408 1408 1409 1411 1413 1415 1417 1419 1421 1422 1424 1426 1428 1429 1430 1431 1432 1432 1432 1433 1434 1435 1436 1437 1438 1439 1440 1441 1441 1441 1441 1441 1441 1441 1441 1441 1442
1390 1390 1389 1389 1389 1388 1388 1388 1388 1388 1388 1389 1389 1390 1390 1391 1392 1392 1393 1394 1395 1396 1397 1398 1399 1401 1402 1402 1404 1405 1408 1410 1412 1414 1415 1417 1419 1422 1423 1424 1425 1426 1427 1427 1428 1428 1429 1430 1432 1433 1433 1434 1436 1436 1435 1436 1436 1435 1436 1436 1436 1436 1437
1385 1385 1384 1384 1384 1384 1384 1384 1383 1383 1384 1384 1385 1385 1385 1386 1387 1387 1388 1389 1390 1391 1392 1393 1394 1395 1396 1397 1399 1400 1403 1404 1407 1409 1411 1412 1415 1417 1418 1419 1420 1421 1422 1423 1423 1423 1424 1426 1427 1428 1429 1430 1431 1430 1430 1431 1432 1430 1431 1432 1432 1431 1432
1381 1380 1380 1380 1380 1380 1380 1379 1379 1379 1380 1380 1380 1381 1381 1381 1382 1383 1383 1384 1385 1386 1386 1388 1389 1390 1391 1392 1394 1396 1398 1400 1402 1404 1406 1408 1410 1412 1413 1414 1415 1416 1417 1418 1418 1418 1420 1421 1421 1421 1423 1424 1425 1425 1426 1428 1428 1426 1426 1427 1427 1426 1427
1377 1376 1376 1376 1376 1376 1376 1375 1375 1376 1376 1376 1376 1376 1377 1377 1377 1378 1378 1379 1380 1380 1381 1382 1384 1385 1386 1388 1389 1391 1393 1395 1397 1399 1401 1403 1405 1406 1408 1409 1410 1411 1411 1413 1413 1413 1415 1415 1414 1415 1417 1418 1420 1421 1422 1424 1423 1422 1422 1423 1421 1420 1422
1373 1372 1372 1372 1372 1371 1371 1371 1372 1372 1372 1372 1372 1372 1373 1373 1373 1373 1374 1374 1375 1375 1376 1378 1379 1380 1382 1383 1385 1386 1388 1391 1392 1394 1396 1398 1400 1401 1403 1404 1405 1405 1407 1408 1408 1409 1410 1409 1408 1410 1413 1414 1415 1417 1418 1418 1419 1418 1418 1419 1417 1414 1415
1369 1369 1368 1368 1368 1367 1367 1368 1368 1368 1368 1368 1368 1368 1368 1369 1369 1369 1369 1369 1370 1371 1372 1373 1374 1376 1377 1378 1380 1382 1384 1386 1387 1389 1391 1393 1395 1396 1397 1399 1400 1401 1402 1403 1404 1404 1404 1403 1403 1405 1407 1409 1411 1412 1413 1414 1414 1414 1414 1413 1412 1410 1410
1366 1365 1365 1364 1364 1363 1363 1363 1363 1364 1364 1364 1364 1364 1364 1364 1364 1364 1364 1365 1366 1367 1368 1369 1370 1371 1372 1374 1376 1377 1379 1381 1383 1385 1387 1388 1390 1391 1392 1393 1395 1396 1397 1398 1399 1399 1398 1398 1400 1400 1401 1404 1407 1408 1408 1408 1408 1409 1409 1408 1407 1406 1407
1363 1362 1362 1361 1360 1360 1359 1359 1359 1360 1360 1360 1360 1361 1360 1359 1359 1359 1360 1361 1362 1362 1363 1364 1365 1366 1367 1369 1371 1373 1374 1376 1378 1380 1382 1383 1384 1385 1386 1388 1389 1391 1392 1392 1393 1393 1392 1394 1396 1395 1397 1400 1402 1403 1403 1403 1404 1404 1404 1403 1403 1403 1403
1360 1359 1358 1358 1357 1356 1356 1356 1356 1356 1356 1356 1357 1357 1358 1357 1355 1355 1355 1356 1357 1358 1359 1360 1361 1362 1363 1365 1366 1368 1370 1372 1374 1375 1377 1378 1379 1380 1381 1382 1383 1385 1387 1387 1387 1387 1387 1389 1391 1391 1393 1395 1397 1397 1398 1399 1399 1400 1400 1399 1398 1398 1398
1357 1356 1355 1355 1354 1353 1353 1353 1353 1352 1352 1352 1353 1354 1355 1355 1353 1352 1352 1352 1353 1354 1355 1356 1357 1358 1360 1361 1362 1364 1366 1368 1370 1371 1372 1373 1374 1375 1375 1376 1377 1380 1382 1383 1383 1382 1383 1384 1386 1387 1388 1390 1391 1392 1393 1395 1395 1395 1395 1395 1393 1391 1391
1354 1353 1352 1352 1351 1350 1349 1349 1349 1349 1349 1349 1350 1350 1351 1351 1350 1350 1349 1349 1350 1350 1351 1352 1353 1355 1356 1357 1359 1361 1363 1365 1366 1367 1368 1368 1369 1370 1370 1370 1372 1375 1377 1378 1379 1379 1379 1380 1381 1382 1384 1385 1386 1386 1388 1390 1388 1388 1390 1389 1387 1385 1385
1351 1350 1349 1349 1348 1347 1346 1346 1346 1346 1346 1346 1347 1348 1348 1347 1347 1347 1346 1346 1346 1347 1348 1349 1350 1351 1352 1354 1355 1357 1360 1362 1362 1362 1363 1363 1364 1364 1363 1364 1367 1370 1371 1372 1374 1375 1375 1376 1377 1379 1380 1381 1382 1383 1384 1383 1381 1383 1385 1384 1382 1381 1382
1348 1347 1347 1346 1345 1344 1344 1343 1343 1343 1343 1343 1343 1344 1345 1345 1344 1344 1343 1343 1343 1343 1344 1345 1346 1347 1349 1350 1352 1354 1356 1358 1358 1357 1357 1358 1359 1358 1357 1360 1363 1364 1364 1366 1367 1368 1369 1371 1372 1374 1374 1375 1376 1379 1380 1378 1377 1379 1380 1378 1377 1378 1379
1346 1345 1345 1344 1343 1343 1342 1342 1342 1342 1341 1341 1341 1341 1342 1342 1341 1341 1340 1340 1341 1341 1341 1342 1343 1344 1346 1347 1349 1350 1351 1353 1354 1353 1352 1352 1352 1351 1352 1356 1359 1359 1359 1361 1361 1362 1363 1364 1366 1367 1368 1369 1370 1372 1374 1374 1373 1374 1374 1373 1373 1374 1374
1344 1343 1343 1342 1342 1341 1341 1340 1340 1340 1339 1339 1339 1339 1339 1339 1338 1338 1338 1337 1337 1338 1338 1339 1339 1341 1342 1344 1345 1346 1347 1348 1349 1349 1348 1346 1345 1346 1349 1352 1353 1353 1354 1355 1355 1356 1358 1358 1360 1361 1362 1363 1364 1365 1367 1368 1369 1369 1369 1368 1369 1369 1369
1342 1341 1341 1340 1340 1339 1339 1338 1337 1337 1337 1337 1336 1336 1336 1336 1335 1335 1335 1335 1334 1334 1334 1334 1335 1336 1338 1339 1340 1341 1343 1343 1344 1345 1344 1342 1342 1343 1346 1347 1347 1347 1349 1349 1349 1350 1351 1352 1354 1355 1356 1357 1359 1360 1362 1363 1363 1364 1364 1364 1364 1365 1365
1340 1339 1338 1338 1337 1337 1336 1335 1334 1334 1333 1333 1333 1332 1332 1332 1332 1332 1332 1331 1331 1331 1331 1331 1331 1331 1332 1334 1334 1335 1337 1338 1339 1339 1339 1339 1340 1341 1342 1343 1342 1342 1342 1343 1344 1344 1344 1345 1347 1348 1350 1351 1353 1354 1356 1357 1358 1359 1360 1360 1360 1360 1360
1338 1337 1336 1335 1334 1334 1333 1332 1331 1331 1330 1330 1329 1329 1328 1328 1328 1328 1328 1327 1327 1327 1327 1327 1327 1327 1328 1329 1329 1329 1331 1332 1333 1333 1333 1334 1336 1337 1338 1339 1338 1337 1337 1337 1337 1338 1338 1339 1341 1342 1343 1345 1347 1349 1351 1352 1354 1355 1355 1355 1355 1356 1356
1336 1335 1334 1332 1331 1331 1330 1329 1328 1328 1327 1327 1326 1325 1325 1325 1324 1324 1324 1322 1321 1321 1322 1322 1323 1323 1324 1324 1324 1324 1325 1326 1327 1327 1328 1329 1330 1331 1332 1332 1332 1333 1333 1332 1331 1331 1332 1333 1335 1337 1338 1341 1343 1345 1346 1347 1348 1349 1350 1350 1350 1350 1351
1334 1333 1332 1330 1329 1328 1327 1327 1326 1325 1325 1324 1323 1322 1322 1321 1321 1320 1320 1319 1318 1317 1317 1317 1318 1318 1318 1318 1319 1319 1320 1320 1321 1321 1322 1323 1324 1325 1325 1326 1326 1327 1327 1327 1327 1327 1328 1329 1330 1332 1334 1337 1338 1339 1339 1341 1342 1343 1344 1345 1345 1345 1345
1333 1331 1330 1328 1327 1326 1325 1324 1323 1322 1322 1321 1320 1319 1319 1318 1318 1317 1316 1316 1315 1314 1314 1313 1313 1313 1313 1313 1313 1314 1315 1315 1315 1316 1316 1317 1317 1318 1319 1320 1321 1321 1322 1322 1323 1323 1324 1325 1327 1328 1329 1331 1332 1332 1334 1336 1337 1337 1338 1339 1340 1339 1339
1331 1330 1328 1327 1325 1324 1322 1321 1320 1319 1319 1318 1317 1317 1316 1315 1315 1314 1313 1312 1311 1311 1310 1309 1309 1308 1308 1308 1308 1308 1309 1310 1310 1311 1311 1312 1312 1313 1313 1315 1316 1316 1316 1316 1317 1318 1319 1320 1322 1323 1324 1325 1326 1327 1329 1330 1331 1331 1332 1334 1335 1333 1333
1330 1329 1328 1326 1324 1322 1320 1319 1318 1317 1317 1316 1316 1315 1314 1313 1312 1310 1309 1308 1307 1306 1305 1304 1304 1304 1304 1304 1304 1303 1304 1304 1305 1305 1306 1306 1307 1308 1308 1309 1310 1310 1311 1311 1312 1313 1314 1315 1316 1317 1318 1319 1320 1321 1323 1325 1326 1326 1327 1329 1328 1328 1328
1330 1329 1327 1324 1322 1321 1319 1317 1316 1315 1314 1314 1314 1313 1312 1311 1309 1307 1306 1304 1303 1301 1300 1299 1298 1298 1299 1299 1299 1299 1299 1299 1300 1300 1300 1301 1302 1303 1303 1304 1304 1305 1306 1307 1307 1308 1309 1310 1311 1312 1313 1314 1314 1316 1318 1319 1320 1320 1322 1322 1322 1322 1323
1328 1327 1325 1322 1319 1318 1317 1315 1314 1312 1312 1311 1310 1309 1308 1306 1305 1304 1302 1301 1299 1297 1296 1296 1295 1294 1294 1294 1294 1294 1294 1294 1295 1295 1295 1296 1297 1297 1298 1299 1299 1300 1301 1302 1302 1302 1303 1304 1305 1306 1307 1308 1309 1311 1312 1313 1314 1315 1316 1316 1317 1317 1318
1326 1324 1322 1320 1318 1316 1314 1312 1310 1309 1309 1308 1306 1305 1304 1302 1300 1299 1297 1295 1295 1294 1293 1292 1291 1290 1290 1290 1289 1289 1289 1289 1290 1290 1290 1291 1291 1291 1292 1293 1294 1295 1296 1296 1297 1297 1298 1299 1300 1301 1302 1303 1304 1305 1307 1308 1309 1310 1310 1311 1312 1312 1314
1324 1321 1319 1318 1316 1314 1312 1309 1308 1306 1305 1304 1303 1302 1300 1297 1295 1294 1293 1291 1291 1290 1289 1288 1287 1287 1286 1286 1285 1285 1285 1285 1285 1285 1285 1285 1285 1286 1287 1288 1289 1290 1291 1291 1291 1292 1293 1294 1295 1296 1297 1298 1299 1300 1301 1302 1304 1305 1306 1306 1307 1308 1309
1321 1318 1316 1314 1312 1310 1308 1306 1304 1303 1302 1301 1300 1298 1294 1291 1290 1290 1290 1289 1287 1286 1285 1284 1283 1282 1282 1281 1281 1281 1281 1280 1280 1280 1280 1280 1280 1280 1281 1282 1283 1284 1284 1285 1286 1286 1287 1288 1290 1291 1292 1293 1294 1295 1296 1297 1298 1300 1301 1301 1302 1303 1305
1318 1316 1313 1310 1308 1306 1304 1303 1301 1299 1298 1298 1295 1292 1289 1287 1286 1286 1286 1285 1284 1283 1281 1280 1279 1278 1277 1277 1276 1276 1276 1276 1276 1275 1275 1275 1275 1275 1276 1277 1277 1278 1278 1279 1280 1281 1282 1283 1284 1285 1287 1288 1289 1290 1291 1292 1293 1295 1296 1297 1298 1299 1301
1313 1312 1310 1308 1306 1303 1301 1299 1298 1296 1295 1294 1291 1287 1285 1284 1283 1282 1281 1280 1280 1279 1278 1277 1276 1275 1274 1273 1273 1272 1272 1271 1271 1271 1271 1271 1270 1271 1271 1271 1272 1272 1273 1274 1275 1275 1277 1278 1279 1280 1282 1283 1284 1285 1286 1287 1289 1290 1291 1293 1294 1295 1297
Wind_Speed
47 49 51 52 53 54 54 54 54 54 55 55 56 57 57 57 57 58 59 58 58 58 58 59 59 59 59 58 58 58 57 56 55 54 52 49 47 45 44 41 39 40 41 38 35 35 33 32 30 30 29 29 28 28 27 28 28 28 29 29 30 29 29
44 46 48 50 52 53 53 53 54 54 54 55 56 56 56 57 57 58 58 58 58 58 58 58 58 59 58 57 57 57 57 56 55 54 53 51 49 48 46 43 41 40 40 39 38 36 36 35 34 33 32 30 30 29 29 29 30 29 29 30 30 30 30
42 44 46 48 50 51 52 52 52 53 53 54 55 56 56 56 56 57 57 58 58 58 57 58 58 58 57 56 56 56 56 55 55 54 53 52 51 49 47 44 41 40 39 39 39 38 37 36 35 35 33 31 30 30 30 31 31 30 29 30 30 31 31
41 43 45 47 48 49 50 51 51 52 53 53 54 54 55 55 56 56 57 57 57 57 57 57 57 57 56 55 55 55 54 54 54 53 52 52 51 50 47 44 41 39 38 38 39 38 38 37 36 35 34 32 31 31 31 31 31 30 30 30 30 31 32
38 40 43 45 46 47 48 48 49 50 51 52 52 53 53 54 55 55 56 56 56 56 56 57 57 57 55 54 54 54 54 53 53 52 52 51 51 49 47 43 41 39 37 38 40 40 39 37 37 36 35 33 33 32 32 32 32 31 31 31 31 32 33
36 37 39 41 42 44 45 45 46 47 48 49 50 51 52 53 54 55 55 56 56 56 56 56 57 56 55 55 54 54 53 53 52 51 51 51 50 49 46 43 41 38 38 39 40 40 40 39 38 38 37 35 34 33 33 33 33 33 33 33 34 34 33
33 33 35 36 38 40 41 42 43 44 45 47 48 49 50 51 52 53 54 55 56 56 56 56 56 56 55 55 55 54 53 52 51 51 50 50 49 47 45 43 40 38 38 39 40 41 41 41 39 39 38 36 34 34 35 35 35 36 35 34 35 35 33
29 29 31 32 34 36 37 39 40 41 43 44 45 47 48 50 51 52 53 54 55 55 56 56 56 56 56 55 55 54 53 52 51 50 49 48 47 46 45 42 39 38 38 39 40 41 41 41 40 40 39 37 36 36 37 36 36 37 36 35 36 36 34
26 27 28 30 31 33 34 36 38 39 40 42 43 45 47 48 49 51 52 53 53 54 55 55 55 55 55 55 54 54 53 52 50 49 48 47 45 45 44 41 38 38 39 40 41 42 42 42 42 42 40 39 39 38 38 36 36 38 38 37 37 37 35
25 25 26 27 28 30 32 34 35 36 38 39 41 43 45 46 48 49 50 51 52 53 53 53 54 54 54 53 53 52 52 50 49 48 47 45 44 43 41 39 37 38 40 41 41 42 42 43 45 44 42 42 40 39 38 37 37 39 39 38 39 40 37
25 25 25 25 26 27 29 31 32 34 35 37 39 41 42 44 45 47 48 49 50 51 51 52 52 52 52 52 51 51 50 49 48 47 46 44 42 40 37 36 37 38 40 40 41 42 42 44 46 44 43 42 41 39 38 38 39 40 39 39 40 41 38
25 25 25 26 27 27 28 29 30 31 32 33 35 37 39 40 42 44 46 47 48 49 49 50 50 50 50 50 50 50 49 48 47 46 44 42 40 38 37 36 37 38 38 39 40 41 43 45 45 44 44 43 41 40 39 39 39 40 40 40 40 41 39
23 23 24 25 26 27 27 27 27 28 28 30 31 33 35 37 38 40 42 44 45 46 47 48 48 48 49 49 48 48 47 47 46 45 43 41 39 38 37 37 38 38 39 39 40 42 44 44 44 44 44 42 40 39 39 39 40 39 39 40 40 40 38
22 22 22 23 24 25 26 26 26 26 26 27 28 28 30 33 35 37 38 40 42 43 45 46 46 47 47 47 46 46 46 45 44 43 42 40 38 38 39 39 39 40 41 42 42 44 46 45 44 45 45 42 40 40 40 40 40 39 39 39 38 37 35
22 22 22 22 23 24 25 25 25 25 25 25 25 25 25 28 32 35 36 36 37 39 41 42 43 44 45 45 45 44 44 43 42 41 40 38 38 39 40 41 42 41 42 44 45 46 47 46 45 45 45 43 41 41 41 39 37 36 36 36 35 34 33
21 21 21 21 22 23 24 24 24 24 24 24 23 22 22 25 30 34 35 36 36 37 37 38 39 39 40 42 42 41 40 39 38 37 37 37 38 40 41 42 43 41 42 43 45 46 47 46 46 46 45 43 40 39 36 34 34 34 33 34 36 36 34
20 20 21 20 21 21 22 23 22 22 22 22 20 19 20 23 28 32 34 35 35 36 36 36 34 33 33 35 37 38 36 35 34 34 35 37 39 40 42 43 43 42 42 43 44 45 46 45 44 42 40 37 35 33 29 28 32 33 32 34 37 38 36
19 19 19 19 19 20 20 20 20 20 20 20 17 15 17 21 25 29 31 31 31 32 34 34 32 30 28 29 31 31 31 31 32 34 36 38 40 41 44 44 43 42 43 44 44 44 43 42 39 36 35 33 32 31 29 32 36 34 33 36 39 39 38
18 17 17 17 17 17 17 17 16 15 16 16 15 13 14 18 22 24 25 25 25 25 28 30 31 30 29 28 28 28 29 30 33 36 38 39 40 43 45 45 43 43 44 45 46 46 45 44 42 40 40 40 38 35 34 37 40 38 37 40 41 41 40
16 16 15 15 14 13 13 13 12 11 11 12 12 13 14 15 18 19 19 20 19 20 22 24 27 28 28 28 29 29 31 33 35 38 40 40 41 44 43 40 40 41 42 42 42 41 41 40 38 38 40 41 42 41 40 40 41 40 40 40 40 40 40
15 14 13 13 12 12 12 13 13 12 12 13 13 14 16 17 19 19 20 21 22 22 23 24 26 27 28 29 31 33 35 37 38 37 39 41 43 42 40 37 36 36 36 36 37 35 34 33 32 32 34 36 38 40 40 41 42 43 43 41 40 40 39
14 14 14 14 14 14 15 16 17 17 17 17 18 18 19 22 24 24 24 25 26 27 28 30 31 32 33 33 35 37 37 37 36 35 37 39 40 38 36 35 37 36 35 36 36 35 34 34 33 33 33 33 35 36 37 38 40 41 42 42 42 42 42
15 16 17 17 17 17 18 18 19 20 20 20 20 21 21 23 25 25 25 25 26 27 29 30 32 34 35 35 36 37 37 36 35 35 36 37 37 36 35 35 37 38 39 39 39 39 39 38 37 36 36 36 36 36 36 36 37 37 38 40 41 41 42
17 18 19 20 20 19 19 19 20 20 21 21 21 22 22 23 24 25 25 25 26 27 27 28 28 29 30 32 33 34 34 33 33 35 36 37 37 37 37 36 37 39 40 41 42 43 44 43 41 39 38 37 36 35 34 34 33 33 34 35 37 38 39
18 19 20 20 21 20 20 20 20 20 20 21 22 22 23 23 24 25 25 27 29 30 31 32 30 27 26 28 29 30 31 32 32 33 34 35 36 37 37 36 36 37 37 38 39 41 43 43 42 41 39 36 35 34 34 33 33 32 31 32 34 36 37
17 18 19 19 19 19 19 19 19 19 19 19 20 20 21 22 23 24 25 27 29 31 33 34 35 33 33 33 32 30 29 30 31 32 33 35 36 36 36 36 36 35 35 36 36 36 37 37 37 36 34 33 33 34 34 34 33 33 33 32 33 34 36
17 17 17 17 18 19 19 19 19 19 19 19 19 20 20 20 20 21 21 22 23 25 26 28 30 32 33 35 36 36 34 33 31 31 32 34 36 37 37 37 38 38 37 37 36 35 35 34 32 31 30 30 31 32 33 33 33 34 33 32 32 34 36
17 17 18 20 21 22 22 22 22 22 23 23 22 22 21 21 21 21 22 22 21 21 21 22 22 24 25 28 31 34 36 38 38 36 34 34 36 37 37 37 38 39 40 40 39 38 38 37 35 34 33 32 32 32 33 33 33 34 34 32 32 34 35
17 18 19 20 21 20 21 22 22 22 22 22 21 22 22 23 24 24 23 23 22 21 22 23 24 24 24 25 26 27 30 33 36 38 39 39 38 38 38 37 37 38 39 40 40 40 40 39 38 37 36 34 34 34 33 34 34 35 34 32 33 34 35
13 14 15 16 18 18 19 19 20 21 21 20 20 21 21 21 22 21 19 19 20 20 22 23 25 26 27 27 28 28 28 29 30 32 36 38 40 41 41 40 40 40 41 41 41 41 41 40 39 38 37 36 35 34 33 33 34 34 33 32 33 34 34
10 11 12 15 18 19 19 19 21 23 22 20 20 20 21 22 24 23 21 22 22 22 22 23 24 26 26 26 27 28 29 29 29 30 31 33 35 38 40 41 42 42 42 42 42 42 42 41 40 39 38 37 35 34 32 31 31 31 31 31 32 32 32
12 13 15 16 17 17 17 18 20 21 20 20 20 21 22 23 24 24 26 28 27 25 23 23 23 23 22 22 23 24 25 27 28 29 30 30 31 33 35 37 38 39 39 39 40 40 40 39 38 37 35 34 33 32 31 30 30 30 31 31 30 31 31
14 16 17 18 18 18 18 19 21 21 21 22 21 20 19 21 22 23 25 27 26 24 24 23 23 23 22 21 21 21 21 23 24 26 28 29 31 32 32 33 33 33 35 36 37 37 37 36 35 33 33 32 32 31 31 31 31 31 31 31 31 31 31
18 19 21 21 21 21 22 23 23 23 23 21 18 16 18 22 24 24 24 24 24 24 24 24 25 25 24 24 23 23 22 22 22 23 24 26 28 30 31 32 32 32 33 34 34 34 35 35 34 33 32 32 31 31 32 32 32 31 31 31 31 31 31
23 23 23 24 24 24 24 24 24 24 21 17 15 17 23 26 26 26 25 25 25 26 25 25 25 25 24 23 21 21 21 21 22 22 22 22 23 24 25 27 28 30 32 33 33 33 33 32 32 32 31 31 31 31 32 32 32 31 31 31 31 31 30
25 25 24 24 24 25 25 24 23 21 17 15 17 22 25 25 24 23 23 22 23 24 23 22 21 21 20 19 18 18 18 19 20 21 21 21 21 21 22 22 24 26 28 29 31 32 32 32 32 31 30 30 31 31 32 32 31 30 30 29 29 29 29
Wind_Direction
275 273 272 270 269 268 267 267 266 265 263 261 261 259 258 256 253 252 253 253 252 252 251 251 252 252 252 251 250 251 251 250 250 249 248 246 245 244 244 243 243 247 252 254 255 257 258 258 258 257 258 260 261 261 263 265 266 268 269 269 269 270 271
279 276 273 271 270 269 268 267 266 265 263 261 261 259 258 256 253 253 253 251 251 251 251 251 251 252 251 249 249 249 249 249 248 248 247 246 245 245 245 244 243 245 250 253 254 256 257 258 259 259 260 260 262 264 265 265 265 266 267 267 268 269 270
282 279 276 273 271 269 268 266 265 264 262 261 260 259 258 257 255 254 253 252 252 252 250 250 251 251 250 248 247 248 247 247 247 246 247 247 246 246 246 245 244 245 248 252 255 256 257 258 259 261 262 262 264 265 264 264 264 265 266 266 267 268 270
283 280 277 274 272 270 268 267 266 264 262 262 261 260 259 258 256 255 254 254 253 252 250 250 251 251 250 247 247 247 246 245 245 246 247 247 247 247 247 247 246 246 248 252 255 256 257 259 260 262 264 264 264 264 264 265 266 267 267 266 268 270 271
282 280 278 275 274 272 271 269 267 265 264 263 262 260 259 258 256 256 256 255 254 253 251 250 251 251 249 246 246 246 245 245 246 247 248 248 247 246 246 247 246 246 248 251 254 256 257 259 260 261 263 264 265 266 267 268 269 269 269 269 269 270 271
280 279 278 277 276 275 273 272 270 268 267 265 263 261 259 258 256 255 255 255 254 252 250 250 250 250 248 247 247 247 246 247 248 248 248 249 248 247 246 246 245 244 247 249 253 255 257 258 259 261 263 264 266 268 270 270 271 270 269 269 270 271 274
280 279 279 278 277 275 274 273 271 269 268 266 263 261 260 258 256 255 254 253 252 251 250 249 249 248 248 247 248 249 248 248 248 248 249 250 250 248 246 245 244 244 246 249 251 254 255 257 258 260 262 265 267 268 268 268 269 269 270 271 273 275 278
280 280 279 278 277 276 274 272 271 269 268 266 264 262 260 258 256 254 253 252 251 250 249 249 248 248 248 249 249 250 249 249 249 249 250 251 249 247 246 245 244 245 247 249 251 253 255 257 258 259 261 263 264 264 265 266 268 271 273 274 275 276 278
279 278 277 276 275 274 273 271 270 269 268 267 265 263 261 259 257 255 253 252 251 250 249 248 248 248 249 249 249 250 249 250 250 251 251 252 250 248 246 244 243 245 247 249 250 252 254 256 257 257 258 260 261 262 266 269 270 271 273 274 275 276 276
278 277 276 275 273 272 271 270 270 269 269 268 266 264 262 260 259 257 255 253 251 250 249 249 249 249 249 249 249 249 249 249 250 251 252 253 252 250 246 243 243 245 247 248 250 252 253 254 256 258 259 261 263 265 268 269 269 270 272 273 275 275 275
275 274 273 272 271 270 269 269 270 270 269 268 267 265 263 261 260 258 256 254 252 251 251 250 250 249 248 248 248 248 248 248 249 251 251 252 252 248 245 244 245 246 248 249 250 253 254 255 258 260 260 262 264 265 267 267 268 269 270 271 272 274 275
276 273 272 270 269 269 268 269 269 270 270 269 268 267 265 263 262 260 257 256 254 253 252 250 249 249 248 248 248 248 248 248 249 250 251 250 248 245 244 245 247 248 249 250 251 253 255 256 259 261 261 262 263 265 267 267 267 268 269 269 270 272 274
280 278 275 273 272 271 270 270 271 272 272 272 271 270 268 266 264 261 259 258 256 255 253 251 250 249 248 249 249 248 248 248 248 249 250 248 245 244 246 247 249 250 252 253 254 256 257 257 260 262 262 263 264 266 266 266 267 268 269 269 270 272 277
284 281 279 276 274 273 272 272 273 274 275 275 275 273 270 269 269 266 263 261 259 257 255 253 251 250 251 251 250 249 250 249 249 249 248 244 242 244 247 248 248 249 250 253 254 255 257 258 260 262 264 265 266 265 265 266 267 268 269 270 274 278 281
286 283 281 278 276 274 273 272 273 273 273 274 275 273 266 264 266 267 266 264 262 259 257 255 254 253 253 253 252 252 252 252 251 249 246 243 243 247 249 249 249 248 248 250 253 255 258 261 262 263 265 265 265 265 266 267 268 269 270 272 275 275 273
288 286 284 282 280 277 275 273 272 272 271 271 273 272 263 256 257 259 262 263 261 260 259 257 255 255 255 255 255 254 254 253 252 249 245 245 248 251 252 252 253 252 251 252 254 258 261 263 265 266 268 269 269 268 268 268 267 266 265 266 267 266 266
289 288 287 286 284 281 279 276 273 271 269 269 270 271 265 257 254 256 261 262 261 259 258 257 256 255 257 258 258 256 254 253 250 247 247 249 252 254 254 254 254 254 254 255 256 259 262 265 267 268 267 267 266 266 266 262 258 258 258 258 260 262 266
292 291 290 290 288 286 283 281 278 274 269 266 263 266 267 263 259 261 265 266 263 258 255 254 253 252 254 257 257 255 253 249 247 248 250 252 253 254 254 254 254 255 255 256 257 258 259 260 261 261 261 259 257 259 263 260 259 260 259 257 259 263 267
295 294 293 292 291 291 289 287 285 279 272 265 256 250 259 269 270 269 268 268 265 259 253 250 249 249 250 252 251 250 248 247 249 253 255 256 255 254 253 253 255 256 257 257 257 257 256 254 252 250 251 251 251 252 254 256 258 260 258 257 260 263 263
298 297 297 297 295 294 293 292 289 283 277 273 260 242 244 266 280 281 276 272 270 265 258 253 250 248 248 248 248 248 249 252 255 258 259 257 254 253 256 258 258 258 259 259 259 259 258 255 251 247 245 245 246 246 246 247 251 253 254 255 258 259 257
301 299 298 297 295 293 292 291 289 285 280 280 276 258 247 255 269 276 279 277 275 272 269 265 260 256 253 252 252 254 256 258 260 260 258 255 253 256 261 263 261 260 260 259 258 258 256 252 247 244 241 241 242 243 243 244 247 249 252 254 255 256 256
301 299 296 294 292 291 291 291 290 288 284 279 277 270 262 258 259 265 271 274 275 274 272 270 268 266 263 262 261 260 259 259 259 258 256 254 255 258 261 261 261 261 260 259 259 258 255 252 249 246 243 242 242 242 242 243 245 247 250 253 255 257 258
301 299 296 294 293 291 291 291 289 287 285 280 275 271 267 263 261 262 265 267 269 271 272 272 271 269 268 267 265 263 261 257 255 254 254 254 256 258 259 258 258 258 258 258 258 258 257 257 256 254 252 250 249 248 247 246 247 248 249 252 254 256 258
301 300 298 297 295 294 292 291 288 285 283 280 277 273 270 267 265 263 262 261 260 260 263 266 269 271 272 270 266 265 264 259 255 253 252 252 253 255 256 255 254 253 253 253 253 252 254 256 258 258 258 256 255 255 255 254 253 253 253 253 254 254 255
303 302 302 301 300 299 295 292 290 288 285 283 281 278 275 272 269 265 262 260 258 256 254 254 255 260 264 264 263 265 266 262 257 255 253 251 251 252 252 252 251 250 249 248 247 246 247 251 254 257 258 259 259 260 260 259 258 257 256 254 253 252 252
309 308 307 306 306 304 301 298 295 294 293 292 289 286 282 278 275 272 268 265 263 262 260 257 255 253 251 251 253 255 258 259 258 257 255 252 251 251 249 248 248 249 249 249 248 247 247 249 252 255 256 256 256 256 256 257 257 258 257 254 252 251 250
315 315 316 317 318 315 312 309 307 305 303 300 297 296 294 292 289 287 284 281 278 275 273 270 267 262 257 254 252 251 251 253 255 256 256 255 255 254 251 248 246 247 249 250 251 252 252 254 256 256 255 253 253 253 255 256 257 257 256 255 253 251 250
321 325 330 329 325 321 316 312 309 307 307 308 309 311 310 309 307 303 299 296 293 288 284 280 276 272 267 262 258 254 251 250 249 251 253 255 256 257 257 255 253 252 253 253 254 255 256 258 259 258 257 256 255 255 256 257 258 259 258 257 254 252 251
326 331 331 324 317 314 313 311 309 308 309 313 316 315 313 314 313 311 308 303 298 293 286 281 277 274 271 269 267 264 260 255 251 249 249 250 252 254 256 257 257 257 256 256 257 258 259 260 261 261 261 261 260 260 260 260 260 260 260 258 254 253 253
328 331 321 306 297 294 294 297 298 297 299 304 307 307 307 304 300 300 303 303 297 289 282 279 277 274 271 269 268 267 266 263 259 255 253 251 251 251 253 254 255 256 258 260 261 263 263 264 264 264 264 264 263 262 261 259 259 260 259 256 254 253 253
313 314 304 294 291 291 289 288 286 285 288 296 300 300 297 289 283 283 285 282 279 279 279 279 280 279 279 277 275 271 269 266 264 262 259 256 254 253 252 253 254 256 258 260 261 263 264 264 265 265 265 265 264 262 260 258 257 257 256 255 253 253 254
302 297 293 292 295 299 300 297 292 288 289 290 288 288 289 286 283 282 279 275 274 276 278 277 277 278 280 282 282 280 278 275 272 269 267 265 263 260 256 255 255 256 257 259 260 261 262 262 262 263 263 263 262 261 259 256 254 255 256 256 255 254 254
308 303 300 298 297 298 297 296 294 292 291 289 289 292 295 290 281 276 276 276 276 276 275 273 273 272 270 269 270 272 273 274 273 273 272 270 268 267 265 263 262 261 260 260 259 260 261 261 261 260 260 260 259 258 258 256 256 256 257 257 255 254 253
313 312 310 308 306 303 300 299 299 298 298 302 306 301 289 279 273 271 273 275 275 275 276 277 279 280 279 276 272 269 268 268 267 268 270 270 269 268 266 265 264 263 262 261 261 260 259 259 259 258 257 256 256 255 255 256 255 255 254 254 254 254 254
315 313 312 312 310 308 306 306 306 306 310 316 312 293 281 279 280 280 277 273 272 276 280 283 285 287 289 289 286 280 274 269 265 263 264 266 268 269 268 265 262 260 259 259 260 260 259 258 258 257 256 256 255 254 255 255 254 254 254 254 255 255 255
317 315 313 311 310 309 310 310 311 312 314 311 302 296 295 297 299 298 295 289 285 284 287 290 292 293 293 294 294 291 284 276 268 263 260 261 262 264 265 265 263 261 259 258 257 257 256 256 256 256 255 255 255 255 255 256 256 256 256 256 256 256 256